Year,Month,Day,Hour,Minute,Value (Times are PST for windgust in km/hr)
2020,03,13,00,00,9.60
2020,03,13,00,01,9.60
2020,03,13,09,03,12.90
2020,03,13,09,04,20.90
2020,03,13,09,05,19.30
2020,03,13,09,06,16.10
2020,03,13,09,07,16.10
2020,03,13,09,08,17.70
2020,03,13,09,09,16.10
2020,03,13,09,10,20.90
2020,03,13,09,11,22.50
2020,03,13,09,12,14.50
2020,03,13,09,13,17.70
2020,03,13,09,14,11.30
2020,03,13,09,15,8.10
2020,03,13,09,16,17.70
2020,03,13,09,17,25.70
2020,03,13,09,18,17.70
2020,03,13,09,19,20.90
2020,03,13,09,20,17.70
2020,03,13,09,21,19.30
2020,03,13,09,22,24.20
2020,03,13,09,23,22.50
2020,03,13,09,24,20.90
2020,03,13,09,25,14.50
2020,03,13,09,26,19.30
2020,03,13,09,27,14.50
2020,03,13,09,28,14.50
2020,03,13,09,29,19.30
2020,03,13,09,30,11.30
2020,03,13,09,31,8.10
2020,03,13,09,32,17.70
2020,03,13,09,33,16.10
2020,03,13,09,34,14.50
2020,03,13,09,35,16.10
2020,03,13,09,36,20.90
2020,03,13,09,37,20.90
2020,03,13,09,38,11.30
2020,03,13,09,39,9.60
2020,03,13,09,40,9.60
2020,03,13,09,41,9.60
2020,03,13,09,42,8.10
2020,03,13,09,43,11.30
2020,03,13,09,44,11.30
2020,03,13,09,45,17.70
2020,03,13,09,46,19.30
2020,03,13,09,47,11.30
2020,03,13,09,48,14.50
2020,03,13,09,49,9.60
2020,03,13,09,50,22.50
2020,03,13,09,51,27.40
2020,03,13,09,52,20.90
2020,03,13,09,53,22.50
2020,03,13,09,54,17.70
2020,03,13,09,55,14.50
2020,03,13,09,56,14.50
2020,03,13,09,57,19.30
2020,03,13,09,58,14.50
2020,03,13,09,59,11.30
2020,03,13,10,00,24.20
2020,03,13,10,01,14.50
2020,03,13,10,02,22.50
2020,03,13,10,03,20.90
2020,03,13,10,04,14.50
2020,03,13,10,05,16.10
2020,03,13,10,06,16.10
2020,03,13,10,07,17.70
2020,03,13,10,08,17.70
2020,03,13,10,09,27.40
2020,03,13,10,10,16.10
2020,03,13,10,11,11.30
2020,03,13,10,12,16.10
2020,03,13,10,13,20.90
2020,03,13,10,14,25.70
2020,03,13,10,15,20.90
2020,03,13,10,16,19.30
2020,03,13,10,17,17.70
2020,03,13,10,18,17.70
2020,03,13,10,19,19.30
2020,03,13,10,20,14.50
2020,03,13,10,21,14.50
2020,03,13,10,22,24.20
2020,03,13,10,23,27.40
2020,03,13,10,24,38.60
2020,03,13,10,25,30.60
2020,03,13,10,26,19.30
2020,03,13,10,27,32.20
2020,03,13,10,28,35.40
2020,03,13,10,29,33.80
2020,03,13,10,30,29.00
2020,03,13,10,31,24.20
2020,03,13,10,32,22.50
2020,03,13,10,33,24.20
2020,03,13,10,34,25.70
2020,03,13,10,35,25.70
2020,03,13,10,36,22.50
2020,03,13,10,37,24.20
2020,03,13,10,38,30.60
2020,03,13,10,39,25.70
2020,03,13,10,40,24.20
2020,03,13,10,41,19.30
2020,03,13,10,42,25.70
2020,03,13,10,43,29.00
2020,03,13,10,44,24.20
2020,03,13,10,45,19.30
2020,03,13,10,46,20.90
2020,03,13,10,47,24.20
2020,03,13,10,48,27.40
2020,03,13,10,49,25.70
2020,03,13,10,50,22.50
2020,03,13,10,51,19.30
2020,03,13,10,52,27.40
2020,03,13,10,53,27.40
2020,03,13,10,54,17.70
2020,03,13,10,55,20.90
2020,03,13,10,56,29.00
2020,03,13,10,57,27.40
2020,03,13,10,58,25.70
2020,03,13,10,59,16.10
2020,03,13,11,00,25.70
2020,03,13,11,01,24.20
2020,03,13,11,02,24.20
2020,03,13,11,03,19.30
2020,03,13,11,04,29.00
2020,03,13,11,05,29.00
2020,03,13,11,06,20.90
2020,03,13,11,07,27.40
2020,03,13,11,08,27.40
2020,03,13,11,09,22.50
2020,03,13,11,10,22.50
2020,03,13,11,11,17.70
2020,03,13,11,12,25.70
2020,03,13,11,13,24.20
2020,03,13,11,14,22.50
2020,03,13,11,15,25.70
2020,03,13,11,16,16.10
2020,03,13,11,17,27.40
2020,03,13,11,18,33.80
2020,03,13,11,19,30.60
2020,03,13,11,20,17.70
2020,03,13,11,21,9.60
2020,03,13,11,22,16.10
2020,03,13,11,23,11.30
2020,03,13,11,24,17.70
2020,03,13,11,25,14.50
2020,03,13,11,26,20.90
2020,03,13,11,27,16.10
2020,03,13,11,28,17.70
2020,03,13,11,29,17.70
2020,03,13,11,30,25.70
2020,03,13,11,31,20.90
2020,03,13,11,32,24.20
2020,03,13,11,33,20.90
2020,03,13,11,34,32.20
2020,03,13,11,35,17.70
2020,03,13,11,36,14.50
2020,03,13,11,37,22.50
2020,03,13,11,38,22.50
2020,03,13,11,39,17.70
2020,03,13,11,40,24.20
2020,03,13,11,41,17.70
2020,03,13,11,42,11.30
2020,03,13,11,43,27.40
2020,03,13,11,44,27.40
2020,03,13,11,45,19.30
2020,03,13,11,46,11.30
2020,03,13,11,47,30.60
2020,03,13,11,48,22.50
2020,03,13,11,49,20.90
2020,03,13,11,50,16.10
2020,03,13,11,51,14.50
2020,03,13,11,52,27.40
2020,03,13,11,53,32.20
2020,03,13,11,54,14.50
2020,03,13,11,55,30.60
2020,03,13,11,56,25.70
2020,03,13,11,57,25.70
2020,03,13,11,58,24.20
2020,03,13,11,59,16.10
2020,03,13,12,00,12.90
2020,03,13,12,01,11.30
2020,03,13,12,02,14.50
2020,03,13,12,03,19.30
2020,03,13,12,04,22.50
2020,03,13,12,05,17.70
2020,03,13,12,06,19.30
2020,03,13,12,07,22.50
2020,03,13,12,08,17.70
2020,03,13,12,09,24.20
2020,03,13,12,10,24.20
2020,03,13,12,11,17.70
2020,03,13,12,12,30.60
2020,03,13,12,13,17.70
2020,03,13,12,14,25.70
2020,03,13,12,15,25.70
2020,03,13,12,16,29.00
2020,03,13,12,17,19.30
2020,03,13,12,18,22.50
2020,03,13,12,19,14.50
2020,03,13,12,20,16.10
2020,03,13,12,21,19.30
2020,03,13,12,22,12.90
2020,03,13,12,23,19.30
2020,03,13,12,24,24.20
2020,03,13,12,25,27.40
2020,03,13,12,26,25.70
2020,03,13,12,27,32.20
2020,03,13,12,28,29.00
2020,03,13,12,29,27.40
2020,03,13,12,30,33.80
2020,03,13,12,31,27.40
2020,03,13,12,32,24.20
2020,03,13,12,33,25.70
2020,03,13,12,34,24.20
2020,03,13,12,35,20.90
2020,03,13,12,36,16.10
2020,03,13,12,37,20.90
2020,03,13,12,38,33.80
2020,03,13,12,39,27.40
2020,03,13,12,40,32.20
2020,03,13,12,41,29.00
2020,03,13,12,42,20.90
2020,03,13,12,43,19.30
2020,03,13,12,44,24.20
2020,03,13,12,45,17.70
2020,03,13,12,46,38.60
2020,03,13,12,47,29.00
2020,03,13,12,48,29.00
2020,03,13,12,49,22.50
2020,03,13,12,50,22.50
2020,03,13,12,51,30.60
2020,03,13,12,52,20.90
2020,03,13,12,53,20.90
2020,03,13,12,54,20.90
2020,03,13,12,55,19.30
2020,03,13,12,56,24.20
2020,03,13,12,57,17.70
2020,03,13,12,58,29.00
2020,03,13,12,59,19.30
2020,03,13,13,00,30.60
2020,03,13,13,01,22.50
2020,03,13,13,02,29.00
2020,03,13,13,03,29.00
2020,03,13,13,04,19.30
2020,03,13,13,05,25.70
2020,03,13,13,06,37.00
2020,03,13,13,07,33.80
2020,03,13,13,08,25.70
2020,03,13,13,09,22.50
2020,03,13,13,10,30.60
2020,03,13,13,11,27.40
2020,03,13,13,12,24.20
2020,03,13,13,13,22.50
2020,03,13,13,14,22.50
2020,03,13,13,15,19.30
2020,03,13,13,16,30.60
2020,03,13,13,17,27.40
2020,03,13,13,18,24.20
2020,03,13,13,19,32.20
2020,03,13,13,20,30.60
2020,03,13,13,21,24.20
2020,03,13,13,22,29.00
2020,03,13,13,23,14.50
2020,03,13,13,24,19.30
2020,03,13,13,25,24.20
2020,03,13,13,26,22.50
2020,03,13,13,27,20.90
2020,03,13,13,28,19.30
2020,03,13,13,29,22.50
2020,03,13,13,30,24.20
2020,03,13,13,31,22.50
2020,03,13,13,32,22.50
2020,03,13,13,33,20.90
2020,03,13,13,34,29.00
2020,03,13,13,35,41.80
2020,03,13,13,36,22.50
2020,03,13,13,37,24.20
2020,03,13,13,38,16.10
2020,03,13,13,39,22.50
2020,03,13,13,40,19.30
2020,03,13,13,41,19.30
2020,03,13,13,42,25.70
2020,03,13,13,43,35.40
2020,03,13,13,44,27.40
2020,03,13,13,45,33.80
2020,03,13,13,46,30.60
2020,03,13,13,47,24.20
2020,03,13,13,48,24.20
2020,03,13,13,49,24.20
2020,03,13,13,50,48.30
2020,03,13,13,51,33.80
2020,03,13,13,52,33.80
2020,03,13,13,53,30.60
2020,03,13,13,54,20.90
2020,03,13,13,55,20.90
2020,03,13,13,56,17.70
2020,03,13,13,57,24.20
2020,03,13,13,58,30.60
2020,03,13,13,59,19.30
2020,03,13,14,00,27.40
2020,03,13,14,01,29.00
2020,03,13,14,02,30.60
2020,03,13,14,03,22.50
2020,03,13,14,04,29.00
2020,03,13,14,05,20.90
2020,03,13,14,06,16.10
2020,03,13,14,07,27.40
2020,03,13,14,08,24.20
2020,03,13,14,09,27.40
2020,03,13,14,10,22.50
2020,03,13,14,11,19.30
2020,03,13,14,12,22.50
2020,03,13,14,13,20.90
2020,03,13,14,14,22.50
2020,03,13,14,15,19.30
2020,03,13,14,16,17.70
2020,03,13,14,17,33.80
2020,03,13,14,18,24.20
2020,03,13,14,19,24.20
2020,03,13,14,20,17.70
2020,03,13,14,21,25.70
2020,03,13,14,22,22.50
2020,03,13,14,23,22.50
2020,03,13,14,24,20.90
2020,03,13,14,25,27.40
2020,03,13,14,26,25.70
2020,03,13,14,27,25.70
2020,03,13,14,28,27.40
2020,03,13,14,29,25.70
2020,03,13,14,30,24.20
2020,03,13,14,31,38.60
2020,03,13,14,32,27.40
2020,03,13,14,33,25.70
2020,03,13,14,34,27.40
2020,03,13,14,35,19.30
2020,03,13,14,36,32.20
2020,03,13,14,37,30.60
2020,03,13,14,38,20.90
2020,03,13,14,39,24.20
2020,03,13,14,40,32.20
2020,03,13,14,41,20.90
2020,03,13,14,42,16.10
2020,03,13,14,43,22.50
2020,03,13,14,44,25.70
2020,03,13,14,45,27.40
2020,03,13,14,46,20.90
2020,03,13,14,47,25.70
2020,03,13,14,48,22.50
2020,03,13,14,49,24.20
2020,03,13,14,50,37.00
2020,03,13,14,51,29.00
2020,03,13,14,52,25.70
2020,03,13,14,53,38.60
2020,03,13,14,54,29.00
2020,03,13,14,55,24.20
2020,03,13,14,56,20.90
2020,03,13,14,57,17.70
2020,03,13,14,58,22.50
2020,03,13,14,59,20.90
2020,03,13,15,00,22.50
2020,03,13,15,01,29.00
2020,03,13,15,02,24.20
2020,03,13,15,03,29.00
2020,03,13,15,04,20.90
2020,03,13,15,05,17.70
2020,03,13,15,06,22.50
2020,03,13,15,07,35.40
2020,03,13,15,08,24.20
2020,03,13,15,09,25.70
2020,03,13,15,10,19.30
2020,03,13,15,11,32.20
2020,03,13,15,12,32.20
2020,03,13,15,13,20.90
2020,03,13,15,14,24.20
2020,03,13,15,15,24.20
2020,03,13,15,16,22.50
2020,03,13,15,17,19.30
2020,03,13,15,18,32.20
2020,03,13,15,19,25.70
2020,03,13,15,20,20.90
2020,03,13,15,21,27.40
2020,03,13,15,22,17.70
2020,03,13,15,23,20.90
2020,03,13,15,24,30.60
2020,03,13,15,25,25.70
2020,03,13,15,26,24.20
2020,03,13,15,27,25.70
2020,03,13,15,28,19.30
2020,03,13,15,29,20.90
2020,03,13,15,30,25.70
2020,03,13,15,31,17.70
2020,03,13,15,32,19.30
2020,03,13,15,33,30.60
2020,03,13,15,34,22.50
2020,03,13,15,35,20.90
2020,03,13,15,36,27.40
2020,03,13,15,37,22.50
2020,03,13,15,38,17.70
2020,03,13,15,39,16.10
2020,03,13,15,40,19.30
2020,03,13,15,41,24.20
2020,03,13,15,42,29.00
2020,03,13,15,43,19.30
2020,03,13,15,44,6.40
2020,03,13,15,45,11.30
2020,03,13,15,46,17.70
2020,03,13,15,47,17.70
2020,03,13,15,48,19.30
2020,03,13,15,49,22.50
2020,03,13,15,50,20.90
2020,03,13,15,51,20.90
2020,03,13,15,52,22.50
2020,03,13,15,53,24.20
2020,03,13,15,54,17.70
2020,03,13,15,55,24.20
2020,03,13,15,56,24.20
2020,03,13,15,57,32.20
2020,03,13,15,58,29.00
2020,03,13,15,59,20.90
2020,03,13,16,00,24.20
2020,03,13,16,01,20.90
2020,03,13,16,02,29.00
2020,03,13,16,03,22.50
2020,03,13,16,04,24.20
2020,03,13,16,05,22.50
2020,03,13,16,06,14.50
2020,03,13,16,07,32.20
2020,03,13,16,08,24.20
2020,03,13,16,09,30.60
2020,03,13,16,10,25.70
2020,03,13,16,11,20.90
2020,03,13,16,12,19.30
2020,03,13,16,13,17.70
2020,03,13,16,14,27.40
2020,03,13,16,15,24.20
2020,03,13,16,16,27.40
2020,03,13,16,17,25.70
2020,03,13,16,18,22.50
2020,03,13,16,19,17.70
2020,03,13,16,20,25.70
2020,03,13,16,21,19.30
2020,03,13,16,22,17.70
2020,03,13,16,23,19.30
2020,03,13,16,24,27.40
2020,03,13,16,25,29.00
2020,03,13,16,26,27.40
2020,03,13,16,27,27.40
2020,03,13,16,28,19.30
2020,03,13,16,29,22.50
2020,03,13,16,30,14.50
2020,03,13,16,31,9.60
2020,03,13,16,32,17.70
2020,03,13,16,33,17.70
2020,03,13,16,34,25.70
2020,03,13,16,35,20.90
2020,03,13,16,36,17.70
2020,03,13,16,37,35.40
2020,03,13,16,38,30.60
2020,03,13,16,39,20.90
2020,03,13,16,40,22.50
2020,03,13,16,41,22.50
2020,03,13,16,42,12.90
2020,03,13,16,43,29.00
2020,03,13,16,44,22.50
2020,03,13,16,45,24.20
2020,03,13,16,46,25.70
2020,03,13,16,47,17.70
2020,03,13,16,48,25.70
2020,03,13,16,49,20.90
2020,03,13,16,50,30.60
2020,03,13,16,51,22.50
2020,03,13,16,52,22.50
2020,03,13,16,53,20.90
2020,03,13,16,54,16.10
2020,03,13,16,55,9.60
2020,03,13,16,56,30.60
2020,03,13,16,57,29.00
2020,03,13,16,58,29.00
2020,03,13,16,59,19.30
2020,03,13,17,00,19.30
2020,03,13,17,01,19.30
2020,03,13,17,02,22.50
2020,03,13,17,03,19.30
2020,03,13,17,04,24.20
2020,03,13,17,05,27.40
2020,03,13,17,06,22.50
2020,03,13,17,07,19.30
2020,03,13,17,08,24.20
2020,03,13,17,09,16.10
2020,03,13,17,10,19.30
2020,03,13,17,11,25.70
2020,03,13,17,12,22.50
2020,03,13,17,13,8.10
2020,03,13,17,14,24.20
2020,03,13,17,15,22.50
2020,03,13,17,16,27.40
2020,03,13,17,17,30.60
2020,03,13,17,18,19.30
2020,03,13,17,19,25.70
2020,03,13,17,20,20.90
2020,03,13,17,21,25.70
2020,03,13,17,22,19.30
2020,03,13,17,23,22.50
2020,03,13,17,24,19.30
2020,03,13,17,25,19.30
2020,03,13,17,26,22.50
2020,03,13,17,27,17.70
2020,03,13,17,28,30.60
2020,03,13,17,29,24.20
2020,03,13,17,30,19.30
2020,03,13,17,31,35.40
2020,03,13,17,32,19.30
2020,03,13,17,33,25.70
2020,03,13,17,34,19.30
2020,03,13,17,35,29.00
2020,03,13,17,36,11.30
2020,03,13,17,37,20.90
2020,03,13,17,38,19.30
2020,03,13,17,39,24.20
2020,03,13,17,40,17.70
2020,03,13,17,41,20.90
2020,03,13,17,42,16.10
2020,03,13,17,43,16.10
2020,03,13,17,44,17.70
2020,03,13,17,45,25.70
2020,03,13,17,46,25.70
2020,03,13,17,47,16.10
2020,03,13,17,48,17.70
2020,03,13,17,49,16.10
2020,03,13,17,50,22.50
2020,03,13,17,51,32.20
2020,03,13,17,52,27.40
2020,03,13,17,53,16.10
2020,03,13,17,54,20.90
2020,03,13,17,55,17.70
2020,03,13,17,56,16.10
2020,03,13,17,57,20.90
2020,03,13,17,58,20.90
2020,03,13,17,59,27.40
2020,03,13,18,00,20.90
2020,03,13,18,01,20.90
2020,03,13,18,02,19.30
2020,03,13,18,03,16.10
2020,03,13,18,04,32.20
2020,03,13,18,05,25.70
2020,03,13,18,06,24.20
2020,03,13,18,07,27.40
2020,03,13,18,08,17.70
2020,03,13,18,09,17.70
2020,03,13,18,10,16.10
2020,03,13,18,11,24.20
2020,03,13,18,12,30.60
2020,03,13,18,13,20.90
2020,03,13,18,14,20.90
2020,03,13,18,15,20.90
2020,03,13,18,16,20.90
2020,03,13,18,17,9.60
2020,03,13,18,18,22.50
2020,03,13,18,19,25.70
2020,03,13,18,20,25.70
2020,03,13,18,21,27.40
2020,03,13,18,22,11.30
2020,03,13,18,23,20.90
2020,03,13,18,24,16.10
2020,03,13,18,25,17.70
2020,03,13,18,26,16.10
2020,03,13,18,27,20.90
2020,03,13,18,28,14.50
2020,03,13,18,29,20.90
2020,03,13,18,30,32.20
2020,03,13,18,31,25.70
2020,03,13,18,32,24.20
2020,03,13,18,33,24.20
2020,03,13,18,34,19.30
2020,03,13,18,35,27.40
2020,03,13,18,36,20.90
2020,03,13,18,37,20.90
2020,03,13,18,38,22.50
2020,03,13,18,39,24.20
2020,03,13,18,40,25.70
2020,03,13,18,41,27.40
2020,03,13,18,42,24.20
2020,03,13,18,43,27.40
2020,03,13,18,44,29.00
2020,03,13,18,45,20.90
2020,03,13,18,46,24.20
2020,03,13,18,47,20.90
2020,03,13,18,48,27.40
2020,03,13,18,49,24.20
2020,03,13,18,50,24.20
2020,03,13,18,51,11.30
2020,03,13,18,52,22.50
2020,03,13,18,53,14.50
2020,03,13,18,54,25.70
2020,03,13,18,55,16.10
2020,03,13,18,56,16.10
2020,03,13,18,57,16.10
2020,03,13,18,58,16.10
2020,03,13,18,59,16.10
2020,03,13,19,00,16.10
2020,03,13,19,01,16.10
2020,03,13,19,02,16.10
2020,03,13,19,03,16.10
2020,03,13,19,04,16.10
2020,03,13,19,55,49.90
2020,03,13,19,56,64.40
2020,03,13,19,57,54.70
2020,03,13,19,58,51.50
2020,03,13,19,59,48.30
2020,03,13,20,00,45.10
2020,03,13,20,01,53.10
2020,03,13,20,02,53.10
2020,03,13,20,03,53.10
2020,03,13,20,04,45.10
2020,03,13,20,05,41.80
2020,03,13,20,06,43.50
2020,03,13,20,07,43.50
2020,03,13,20,08,49.90
2020,03,13,20,09,53.10
2020,03,13,20,10,37.00
2020,03,13,20,11,49.90
2020,03,13,20,12,38.60
2020,03,13,20,13,33.80
2020,03,13,20,14,61.20
2020,03,13,20,15,61.20
2020,03,13,20,16,54.70
2020,03,13,20,17,59.50
2020,03,13,20,18,43.50
2020,03,13,20,19,51.50
2020,03,13,20,20,57.90
2020,03,13,20,21,54.70
2020,03,13,20,22,45.10
2020,03,13,20,23,53.10
2020,03,13,20,24,45.10
2020,03,13,20,25,53.10
2020,03,13,20,26,53.10
2020,03,13,20,27,56.30
2020,03,13,20,28,51.50
2020,03,13,20,29,41.80
2020,03,13,20,30,30.60
2020,03,13,20,31,37.00
2020,03,13,20,32,62.70
2020,03,13,20,33,62.70
2020,03,13,20,34,59.50
2020,03,13,20,35,48.30
2020,03,13,20,36,51.50
2020,03,13,20,37,53.10
2020,03,13,20,38,53.10
2020,03,13,20,39,49.90
2020,03,13,20,40,57.90
2020,03,13,20,41,54.70
2020,03,13,20,42,54.70
2020,03,13,20,43,46.70
2020,03,13,20,44,46.70
2020,03,13,20,45,51.50
2020,03,13,20,46,43.50
2020,03,13,20,47,54.70
2020,03,13,20,48,53.10
2020,03,13,20,49,59.50
2020,03,13,20,50,53.10
2020,03,13,20,51,41.80
2020,03,13,20,52,46.70
2020,03,13,20,53,49.90
2020,03,13,20,54,51.50
2020,03,13,20,55,40.20
2020,03,13,20,56,57.90
2020,03,13,20,57,57.90
2020,03,13,20,58,49.90
2020,03,13,20,59,46.70
2020,03,13,21,00,57.90
2020,03,13,21,01,59.50
2020,03,13,21,02,49.90
2020,03,13,21,03,56.30
2020,03,13,21,04,61.20
2020,03,13,21,05,59.50
2020,03,13,21,06,59.50
2020,03,13,21,07,61.20
2020,03,13,21,08,49.90
2020,03,13,21,09,53.10
2020,03,13,21,10,46.70
2020,03,13,21,11,64.40
2020,03,13,21,12,45.10
2020,03,13,21,13,57.90
2020,03,13,21,14,53.10
2020,03,13,21,15,56.30
2020,03,13,21,16,59.50
2020,03,13,21,17,53.10
2020,03,13,21,18,49.90
2020,03,13,21,19,53.10
2020,03,13,21,20,38.60
2020,03,13,21,21,46.70
2020,03,13,21,22,38.60
2020,03,13,21,23,37.00
2020,03,13,21,24,37.00
2020,03,13,21,25,62.70
2020,03,13,21,26,61.20
2020,03,13,21,27,56.30
2020,03,13,21,28,56.30
2020,03,13,21,29,46.70
2020,03,13,21,30,53.10
2020,03,13,21,31,46.70
2020,03,13,21,32,46.70
2020,03,13,21,33,53.10
2020,03,13,21,34,45.10
2020,03,13,21,35,37.00
2020,03,13,21,36,49.90
2020,03,13,21,37,37.00
2020,03,13,21,38,46.70
2020,03,13,21,39,35.40
2020,03,13,21,40,51.50
2020,03,13,21,41,46.70
2020,03,13,21,42,51.50
2020,03,13,21,43,61.20
2020,03,13,21,44,57.90
2020,03,13,21,45,59.50
2020,03,13,21,46,53.10
2020,03,13,21,47,49.90
2020,03,13,21,48,48.30
2020,03,13,21,49,48.30
2020,03,13,21,50,53.10
2020,03,13,21,51,49.90
2020,03,13,21,52,61.20
2020,03,13,21,53,46.70
2020,03,13,21,54,40.20
2020,03,13,21,55,43.50
2020,03,13,21,56,46.70
2020,03,13,21,57,46.70
2020,03,13,21,58,45.10
2020,03,13,21,59,48.30
2020,03,13,22,00,48.30
2020,03,13,22,01,41.80
2020,03,13,22,02,64.40
2020,03,13,22,03,59.50
2020,03,13,22,04,53.10
2020,03,13,22,05,53.10
2020,03,13,22,06,59.50
2020,03,13,22,07,57.90
2020,03,13,22,08,53.10
2020,03,13,22,09,51.50
2020,03,13,22,10,64.40
2020,03,13,22,11,57.90
2020,03,13,22,12,62.70
2020,03,13,22,13,59.50
2020,03,13,22,14,62.70
2020,03,13,22,15,64.40
2020,03,13,22,16,49.90
2020,03,13,22,17,37.00
2020,03,13,22,18,61.20
2020,03,13,22,19,64.40
2020,03,13,22,20,54.70
2020,03,13,22,21,54.70
2020,03,13,22,22,57.90
2020,03,13,22,23,56.30
2020,03,13,22,24,43.50
2020,03,13,22,25,51.50
2020,03,13,22,26,51.50
2020,03,13,22,27,33.80
2020,03,13,22,28,62.70
2020,03,13,22,29,54.70
2020,03,13,22,30,61.20
2020,03,13,22,31,56.30
2020,03,13,22,32,54.70
2020,03,13,22,33,51.50
2020,03,13,22,34,46.70
2020,03,13,22,35,46.70
2020,03,13,22,36,46.70
2020,03,13,22,37,54.70
2020,03,13,22,38,66.00
2020,03,13,22,39,66.00
2020,03,13,22,40,62.70
2020,03,13,22,41,56.30
2020,03,13,22,42,61.20
2020,03,13,22,43,53.10
2020,03,13,22,44,64.40
2020,03,13,22,45,64.40
2020,03,13,22,46,62.70
2020,03,13,22,47,57.90
2020,03,13,22,48,57.90
2020,03,13,22,49,57.90
2020,03,13,22,50,57.90
2020,03,13,22,51,57.90
2020,03,13,22,52,57.90
2020,03,13,22,53,57.90
2020,03,13,22,54,57.90
2020,03,13,22,55,57.90
2020,03,13,22,56,57.90
